Location: Brede
(50.9167°N, 0.6000°E)
Time: 06:46:46
(UTC+00:00)

Tiros 1 despin weight - All Passes

Search period start: 27 November 2020 00:00
Search period end: 07 December 2020 00:00
Orbit: 593 x 642 km, 48.2° (Epoch: 26 November)

Date Brightness Start Highest point End Pass type
(mag) Time Alt. Az. Time Alt. Az. Time Alt. Az.
27 Nov - 12:21:54 10° SSW 12:25:25 21° SE 12:28:56 10° E daylight
27 Nov - 14:01:48 10° WSW 14:06:21 50° SSE 14:10:53 10° E daylight
27 Nov - 15:43:02 10° W 15:47:41 63° S 15:52:18 10° ESE daylight
27 Nov - 17:24:34 10° W 17:28:53 37° SSW 17:33:10 10° SE visible
27 Nov - 19:07:32 10° WSW 19:09:33 13° SW 19:11:32 10° SSW visible
28 Nov - 12:37:24 10° SW 12:41:32 31° SSE 12:45:39 10° E daylight
28 Nov - 14:18:02 10° WSW 14:22:40 59° S 14:27:17 10° E daylight
28 Nov - 15:59:25 10° W 16:04:01 56° SSW 16:08:35 10° ESE daylight
28 Nov - 17:41:10 10° W 17:45:04 26° SSW 17:48:55 10° SSE visible
29 Nov - 11:14:05 10° S 11:16:57 16° SE 11:19:49 10° ESE daylight
29 Nov - 12:53:18 10° SW 12:57:44 43° SSE 13:02:10 10° E daylight
29 Nov - 14:34:22 10° W 14:39:00 64° S 14:43:39 10° E daylight
29 Nov - 16:15:50 10° W 16:20:19 44° SSW 16:24:44 10° SE daylight
29 Nov - 17:58:05 10° WSW 18:01:07 17° SW 18:04:07 10° S visible
30 Nov - 11:29:11 10° SSW 11:33:00 25° SSE 11:36:49 10° E daylight
30 Nov - 13:09:27 10° WSW 13:14:01 54° SSE 13:18:36 10° E daylight
30 Nov - 14:50:44 10° W 14:55:22 60° S 14:59:59 10° ESE daylight
30 Nov - 16:32:20 10° W 16:36:32 33° SSW 16:40:40 10° SE visible
01 Dec - 10:06:49 10° SSE 10:08:32 12° SE 10:10:14 10° ESE daylight
01 Dec - 11:44:53 10° SW 11:49:08 36° SSE 11:53:26 10° E daylight
01 Dec - 13:25:43 10° WSW 13:30:21 62° S 13:35:00 10° E daylight
01 Dec - 15:07:07 10° W 15:11:41 51° SSW 15:16:13 10° ESE daylight
01 Dec - 16:49:01 10° W 16:52:38 22° SW 16:56:15 10° SSE visible
02 Dec - 10:21:11 10° S 10:24:30 19° SE 10:27:51 10° E daylight
02 Dec - 12:00:53 10° SW 12:05:23 48° SSE 12:09:54 10° E daylight
02 Dec - 13:42:03 10° W 13:46:42 63° S 13:51:21 10° ESE daylight
02 Dec - 15:23:34 10° W 15:27:57 40° SSW 15:32:18 10° SE daylight
02 Dec - 17:06:13 10° WSW 17:08:39 14° SW 17:11:04 10° S visible
03 Dec - 10:36:34 10° SSW 10:40:35 29° SSE 10:44:38 10° E daylight
03 Dec - 12:17:05 10° WSW 12:21:41 58° S 12:26:19 10° E daylight
03 Dec - 13:58:26 10° W 14:03:03 57° S 14:07:39 10° ESE daylight
03 Dec - 15:40:08 10° W 15:44:08 28° SSW 15:48:07 10° SSE daylight
04 Dec - 09:13:29 10° S 09:16:03 15° SE 09:18:37 10° ESE daylight
04 Dec - 10:52:24 10° SW 10:56:46 41° SSE 11:01:11 10° E daylight
04 Dec - 12:33:23 10° WSW 12:38:02 63° S 12:42:41 10° E daylight
04 Dec - 14:14:50 10° W 14:19:21 47° SSW 14:23:50 10° SE daylight
04 Dec - 15:56:57 10° W 16:00:12 19° SW 16:03:27 10° S daylight
05 Dec - 09:28:25 10° SSW 09:32:04 23° SSE 09:35:45 10° E daylight
05 Dec - 11:08:30 10° WSW 11:13:02 52° SSE 11:17:36 10° E daylight
05 Dec - 12:49:45 10° W 12:54:23 62° S 12:59:02 10° ESE daylight
05 Dec - 14:31:19 10° W 14:35:34 35° SSW 14:39:49 10° SE daylight
05 Dec - 16:14:45 10° WSW 16:16:10 11° SW 16:17:35 10° SSW daylight
06 Dec - 08:06:45 10° SSE 08:07:38 10° SE 08:08:32 10° SE daylight
06 Dec - 09:44:01 10° SW 09:48:12 34° SSE 09:52:24 10° E daylight
06 Dec - 11:24:45 10° WSW 11:29:22 61° S 11:34:00 10° E daylight
06 Dec - 13:06:09 10° W 13:10:43 53° SSW 13:15:18 10° ESE daylight
06 Dec - 14:47:57 10° W 14:51:43 24° SSW 14:55:28 10° SSE daylight
